{"data":{"norad_id":65064,"intl_designator":"2025-165J","name":"STARLINK-34793","alt_names":[],"object_type":"PAYLOAD","status":"ACTIVE","operator":null,"country":"US","launch_date":"2025-07-31","launch_site_code":"AFWTR","launch_vehicle":null,"mission":null,"orbit_class":"UNKNOWN","rcs_meters":null,"size_class":null,"mass_kg":null,"dimensions":null,"purposes":["comms"],"wikipedia_slug":null,"has_3d_model":false,"image_url":null,"decayed_at":null,"tle_current":{"epoch":"2026-05-25T04:32:23.370432Z","epoch_age_seconds":58141,"freshness":"FRESH","line1":"1 65064U 25165J   26145.18915938  .00003972  00000+0  27910-3 0  9994","line2":"2 65064  97.4491 222.2985 0002378 137.7360 222.4051 15.05659042 46300","mean_motion":15.05659042,"eccentricity":0.0002378,"inclination_deg":97.4491,"raan_deg":222.2985,"arg_perigee_deg":137.736,"mean_anomaly_deg":222.4051,"bstar":0.0002791,"rev_number":4630,"period_min":95.639182566009,"perigee_km":547.83603060377,"apogee_km":551.13080687493,"semimajor_km":6927.6204187393,"source":"CELESTRAK","updated_at":"2026-05-25T13:38:20.677865Z"}}}